Location: Newark
(42.8481°N, 0.4872°E)
Time: 00:05:10
(UTC+00:00)

Transit 2A - Pass Details

Date: 29 October 2020
Orbit: 595 x 963 km, 66.7° (Epoch: 03 December)

Event Time Altitude Azimuth Distance (km) Brightness Sun altitude
Rises 09:45:07 0° 327° (NNW) 3,433 8.8 27.5°
Reaches altitude 10° 09:47:43 10° 326° (NW) 2,436 8.1 27.7°
Maximum altitude 09:53:17 75° 243° (WSW) 792 6.6 28.3°
Drops below altitude 10° 09:58:14 10° 158° (SSE) 2,172 10.0 28.7°
Sets 10:00:26 0° 156° (SSE) 3,034 10.3 28.9°
